Theta_e
323 324 324 324 324 324 324 323 323 323 322 322 321 320 319 318 317 316 315 313 310 308 306 305 303 300 296 294 293 292 292 292 291 291 291 291 291 290 290 290 290 290 290 290 290 290 289 289 289 289 289 289 288 288 288 288 287 287 287 287 287 288 289 290 291 290 290 289 289 289 289 289 288 288 288 288 288 288 288 288 289 289 289 289 289
321 322 322 322 323 323 322 322 321 321 320 319 319 317 317 316 316 314 311 308 306 305 303 300 296 294 293 292 292 291 291 291 291 291 291 291 291 290 290 290 290 290 290 290 289 289 289 289 289 289 289 289 288 288 288 287 287 287 287 286 286 286 287 288 289 289 289 289 288 288 288 288 288 288 288 288 288 288 288 288 288 288 288 288 288
319 320 321 321 321 321 321 320 320 319 319 317 316 315 315 315 313 310 307 305 303 300 296 294 293 292 292 292 291 291 291 291 291 291 291 291 290 290 290 290 290 290 289 289 289 289 289 289 289 289 288 289 288 288 287 287 287 286 286 286 286 286 286 286 287 288 287 287 287 287 287 287 287 287 287 287 287 287 287 287 287 287 287 287 288
318 319 319 319 319 319 319 319 318 318 317 315 314 314 313 311 308 306 304 301 297 294 292 292 292 292 292 291 291 291 291 291 291 291 290 290 290 290 290 290 289 289 289 289 289 289 289 289 289 288 288 288 288 287 287 286 286 285 285 285 285 285 285 285 286 286 286 286 286 286 286 286 286 286 286 286 286 287 286 286 286 286 286 286 286
317 318 318 318 318 317 317 317 316 315 314 313 313 311 309 306 304 302 298 295 292 292 292 292 292 292 292 291 291 291 291 291 290 290 290 290 290 290 289 289 289 289 289 289 289 289 289 288 288 288 288 287 287 286 286 286 285 285 285 285 284 284 285 285 285 285 286 286 286 286 286 286 286 286 286 286 286 286 286 285 285 285 285 285 285
316 317 317 317 316 315 315 314 313 313 312 311 309 307 305 303 301 296 293 292 292 292 292 291 291 291 291 291 291 290 290 290 290 290 290 289 289 289 289 289 289 289 289 288 288 288 288 288 288 287 287 286 286 285 285 285 284 284 284 284 284 284 284 284 284 285 285 285 285 285 285 285 285 285 285 285 285 285 285 285 285 284 285 285 286
314 315 315 315 314 313 312 312 311 311 309 307 306 304 302 299 295 292 292 292 292 291 291 291 291 291 291 290 290 290 289 289 289 289 289 289 289 289 289 289 289 288 288 288 288 288 287 287 287 286 286 285 284 284 284 284 283 283 283 283 283 284 284 284 284 284 284 285 285 285 285 285 285 285 285 284 284 284 284 285 285 284 284 285 285
313 313 313 312 311 311 310 309 309 307 306 304 303 300 297 293 291 291 292 291 291 291 291 290 290 290 290 290 289 289 289 289 289 289 289 289 289 289 289 289 288 288 288 288 287 287 287 287 287 286 285 284 284 283 283 283 283 283 283 283 283 283 284 284 284 284 284 285 285 285 284 284 284 284 284 283 283 284 284 284 285 284 284 284 284
311 311 311 310 309 309 308 307 305 304 303 301 298 295 292 291 291 291 291 291 291 291 290 290 290 290 289 289 289 289 289 289 289 289 289 289 289 289 288 288 288 288 288 287 287 287 287 287 286 285 284 284 283 282 282 282 282 282 282 283 283 283 284 284 284 284 284 284 284 284 284 284 284 283 283 283 283 284 284 284 284 284 284 284 284
310 309 308 308 307 307 305 304 303 302 299 296 293 291 291 291 291 290 290 290 290 290 290 290 290 289 289 289 288 288 289 289 289 288 288 288 288 288 288 288 288 287 287 287 287 287 287 286 286 285 284 283 282 281 281 281 281 282 282 282 283 283 283 283 283 283 283 283 283 283 283 283 283 283 283 283 283 284 284 284 284 284 284 284 285
308 307 306 306 305 304 303 302 300 297 294 292 291 290 290 290 290 290 290 290 290 290 290 289 289 289 289 288 288 288 288 288 288 288 288 288 288 288 288 287 287 287 287 286 286 286 286 286 285 285 284 283 282 281 280 280 280 281 281 282 282 282 282 282 282 282 283 283 283 283 283 283 283 283 283 283 283 284 284 284 284 284 284 285 285
305 305 304 303 302 301 301 299 296 293 291 290 290 290 290 290 290 290 290 290 290 289 289 289 289 288 288 288 288 288 288 288 288 288 287 287 288 287 287 287 287 286 286 286 286 285 285 285 284 284 283 282 281 280 280 280 280 281 281 281 282 282 282 282 282 282 282 283 283 283 283 283 283 283 283 283 283 284 284 284 284 284 284 284 285
303 302 301 300 299 299 297 295 292 290 290 290 290 290 290 290 290 290 290 290 289 289 289 289 288 288 288 288 288 288 288 288 287 287 287 287 287 287 287 287 286 286 286 285 285 284 284 283 283 282 282 281 280 279 279 280 280 281 281 281 281 281 281 282 282 282 282 282 282 282 283 283 283 283 283 283 283 283 283 283 283 284 284 284 284
300 299 298 297 296 295 293 291 290 290 290 290 289 289 290 290 290 290 290 289 289 289 289 288 288 288 288 288 288 288 287 287 287 287 287 287 287 286 286 286 286 285 285 284 284 283 283 282 281 281 280 279 279 279 279 280 281 281 281 281 281 281 281 281 281 281 281 282 282 282 282 282 283 283 283 283 283 283 283 283 283 283 284 284 284
297 296 296 294 293 292 291 290 290 289 289 289 289 289 289 289 289 289 289 289 289 288 288 288 288 288 288 288 287 287 287 287 287 286 286 286 286 286 286 286 286 285 285 284 284 283 281 280 280 279 279 278 279 279 280 281 281 281 281 280 280 280 280 280 280 280 280 281 281 281 282 282 282 282 282 282 282 282 282 282 282 283 283 283 284
295 294 293 292 291 290 290 289 289 289 289 289 289 289 289 289 289 289 289 288 288 288 288 288 288 287 287 287 287 287 287 286 286 286 286 286 286 286 286 286 285 285 285 284 283 282 280 279 278 278 278 278 279 279 281 281 281 280 280 280 279 280 279 279 279 279 280 280 280 281 281 281 281 281 281 281 281 281 281 282 282 282 283 284 284
293 292 292 291 290 289 289 289 289 289 289 288 288 288 288 289 288 288 288 288 288 288 288 287 287 287 287 287 287 287 286 286 286 286 285 285 286 286 286 285 285 285 284 283 282 281 280 279 278 277 277 278 279 280 281 281 281 280 279 279 279 279 278 278 278 279 279 280 280 280 280 280 280 280 280 280 280 280 281 281 282 282 283 283 284
292 292 291 290 289 289 289 289 289 289 288 288 288 288 288 288 288 288 288 288 288 287 287 287 287 287 287 287 286 286 286 286 285 285 285 285 285 285 285 285 284 284 283 281 281 280 279 278 277 277 277 278 279 280 281 281 280 279 279 279 278 278 277 278 279 279 279 279 279 279 279 279 279 279 279 279 280 280 280 281 281 282 282 283 283
292 291 290 289 289 289 289 289 289 289 288 288 288 288 288 288 288 287 287 287 287 287 287 287 287 286 286 286 286 286 286 285 285 285 285 285 285 285 285 284 283 281 280 279 279 279 278 278 277 277 278 279 280 280 280 280 279 279 278 278 277 277 278 279 279 279 278 278 278 278 278 278 278 278 278 279 279 280 280 280 281 281 282 282 283
292 290 289 289 289 288 288 289 289 289 289 288 288 288 288 287 287 287 287 287 287 287 286 286 286 286 286 286 285 285 285 285 284 284 284 284 284 284 284 282 281 279 278 277 278 278 278 277 277 277 278 279 280 280 279 279 279 278 277 277 277 278 279 279 279 279 278 278 277 277 277 277 277 277 278 278 278 279 279 280 280 281 282 282 283
291 290 289 288 288 288 288 288 289 289 288 288 287 287 287 287 287 287 287 287 286 286 286 286 286 286 285 285 285 285 285 285 284 284 284 284 284 284 283 281 279 277 277 277 277 277 277 277 277 277 278 279 279 279 278 278 278 277 276 277 278 279 279 278 278 277 276 276 276 276 276 276 277 277 277 278 278 279 279 279 280 281 281 282 283
290 289 288 288 288 288 288 288 288 288 287 287 287 287 286 287 287 286 286 286 286 286 286 285 285 285 285 284 284 284 284 284 284 284 284 284 284 283 281 280 278 277 277 277 276 276 276 276 277 278 279 279 278 277 277 277 277 276 277 278 278 278 277 276 275 275 274 274 275 275 276 276 277 277 277 277 278 278 278 279 280 280 281 282 282
289 288 288 287 287 287 287 287 287 287 287 287 287 287 286 286 286 286 286 286 286 285 285 285 285 285 284 284 284 284 284 284 284 284 284 284 283 282 280 278 278 277 277 277 276 276 276 276 277 278 278 277 276 276 276 275 275 276 277 277 276 275 274 273 273 273 274 274 275 275 276 276 276 276 277 277 277 278 278 279 280 280 281 282 283
288 288 287 287 286 286 286 286 286 287 287 286 287 286 286 286 286 286 286 286 286 285 285 285 285 285 285 284 284 283 283 284 284 283 283 283 282 280 279 278 278 277 277 276 276 276 276 277 277 277 276 276 276 275 275 274 275 275 275 274 273 272 272 272 272 272 273 274 274 275 275 275 276 276 276 277 277 278 278 279 279 280 281 282 283
288 287 286 285 285 285 285 285 286 286 286 286 286 286 286 285 285 285 285 285 285 285 285 284 285 285 285 284 283 283 283 283 283 283 283 282 281 280 279 278 277 277 276 276 276 276 276 276 276 276 276 275 275 274 273 273 273 273 273 272 271 270 270 271 271 272 273 273 274 274 274 275 275 275 276 276 277 277 278 279 279 280 281 282 282
287 286 285 285 285 285 285 285 285 285 285 285 286 286 286 286 285 285 285 285 285 285 285 285 284 285 285 284 283 283 282 282 282 281 281 281 280 280 279 278 277 276 276 275 275 275 276 276 276 276 275 274 273 273 272 273 273 273 272 271 270 270 270 270 271 271 272 272 273 273 274 274 274 275 276 276 277 277 278 279 279 280 281 281 280
286 285 284 284 284 284 285 284 284 284 284 284 285 285 285 286 285 285 285 284 284 284 285 285 285 285 284 283 283 282 281 281 281 280 279 279 279 278 277 276 275 275 275 275 275 276 276 277 277 276 275 274 273 272 272 272 273 273 272 270 269 269 269 269 270 271 271 271 272 272 273 273 274 275 275 276 276 277 278 278 279 280 280 279 279
285 284 284 283 283 283 284 284 284 284 284 284 284 285 285 285 285 285 285 285 285 285 285 285 285 285 284 283 282 281 280 279 279 279 278 277 277 276 275 275 275 275 275 275 275 276 277 277 278 277 276 274 273 272 272 271 271 271 271 270 269 268 268 269 269 269 270 270 271 271 272 273 274 274 275 275 276 277 277 278 279 279 278 277 277
284 283 283 282 282 282 282 283 283 283 283 283 284 284 284 284 285 285 285 285 286 287 287 286 285 284 283 283 282 280 279 279 278 277 276 276 275 275 275 274 275 275 275 275 275 276 277 277 277 276 274 272 272 272 271 270 269 269 269 268 268 268 268 268 268 268 269 269 270 271 272 273 273 274 274 275 276 277 277 277 278 277 276 276 276
282 282 281 281 281 281 281 282 282 283 283 283 283 282 282 283 283 283 284 284 284 284 284 284 283 283 282 282 281 280 279 278 277 276 275 275 275 275 275 275 275 275 275 275 276 276 277 276 274 272 271 270 270 270 270 269 269 268 268 267 267 267 267 267 267 268 268 269 270 270 271 272 273 273 274 275 276 276 277 276 276 276 275 274 274
281 280 280 280 280 281 281 281 281 282 283 283 283 282 280 280 280 281 282 282 281 281 281 282 282 281 281 281 280 279 278 277 276 274 274 275 275 276 275 275 275 275 275 275 275 275 275 274 271 270 270 269 269 269 268 268 267 267 267 267 267 267 267 267 267 267 268 268 269 270 270 271 272 273 274 274 275 276 276 276 275 275 274 273 273
282 280 280 280 280 281 281 281 282 282 282 281 281 280 279 278 278 278 279 279 279 280 280 280 280 279 279 279 278 277 277 276 274 273 274 275 276 275 275 275 275 275 274 274 275 275 273 271 270 269 269 269 268 268 268 267 266 266 266 266 266 267 267 267 267 267 267 268 268 269 269 271 272 272 273 274 275 275 275 275 274 273 273 272 272
282 281 280 280 280 280 281 281 281 282 282 280 279 279 280 280 279 277 277 277 277 277 277 277 277 277 277 276 276 276 275 274 273 273 273 274 275 275 274 274 274 274 274 274 274 273 271 270 269 269 269 269 268 268 268 267 266 265 265 265 266 266 267 267 267 267 267 268 268 268 269 270 271 272 273 274 275 275 275 274 273 272 272 271 271
282 281 280 280 280 280 280 281 281 282 282 281 280 280 281 281 280 278 276 276 275 275 275 275 275 275 275 274 275 275 274 273 272 272 272 274 274 274 274 274 273 273 273 273 272 271 271 270 270 269 269 269 268 268 267 266 266 265 265 265 265 266 266 267 267 267 267 267 268 268 269 270 271 271 272 274 274 274 274 273 272 271 271 270 270
281 280 280 279 279 280 280 281 281 281 281 281 281 280 280 280 278 277 277 277 275 274 274 274 274 274 274 274 275 275 274 273 272 271 273 274 274 274 273 273 273 273 272 272 271 270 270 270 269 269 269 269 269 268 267 266 266 266 265 265 265 266 266 266 267 267 267 267 268 268 269 269 270 271 272 273 274 273 273 272 271 271 270 270 270
280 279 279 279 279 279 279 280 281 281 281 280 280 279 279 278 277 277 277 277 276 275 274 274 274 273 273 273 275 275 274 272 271 272 273 274 274 274 273 273 273 273 273 272 271 270 270 269 269 269 269 269 269 268 268 267 266 266 265 265 265 265 266 266 266 267 267 267 267 268 268 269 270 271 272 273 273 272 272 271 271 270 270 270 269
279 279 279 279 279 279 279 279 279 280 279 278 278 277 277 277 277 276 276 276 276 275 275 274 273 273 272 273 274 275 273 271 271 272 273 273 273 273 273 273 272 272 272 271 271 271 270 270 270 270 269 269 269 269 268 268 266 265 265 265 265 265 266 266 266 266 267 267 267 267 268 269 269 270 272 272 272 271 271 270 270 270 270 269 269
279 279 279 279 278 278 278 277 277 277 276 276 277 277 277 277 276 276 276 275 275 275 275 274 273 273 273 273 274 274 272 271 272 272 272 273 273 272 272 272 271 271 271 271 270 271 271 270 270 270 269 269 269 269 269 268 267 265 264 264 264 265 265 265 266 266 266 267 267 267 267 268 269 270 271 272 271 271 270 270 269 269 269 268 268
278 278 278 278 278 277 277 276 276 275 275 275 276 276 276 276 275 275 275 275 275 275 275 274 273 274 274 274 274 273 272 272 272 272 272 272 272 272 271 271 271 270 270 270 270 270 270 270 270 270 269 269 269 269 268 268 267 266 264 263 264 264 264 265 265 266 266 266 266 266 267 267 268 270 271 271 271 270 270 269 269 268 268 267 267
277 277 277 277 276 276 276 275 275 275 274 275 275 275 275 276 276 276 275 275 275 274 274 274 274 274 274 274 274 273 273 273 273 272 272 272 272 271 271 271 270 270 270 270 270 270 270 270 270 269 269 269 269 269 268 268 268 267 264 263 263 264 264 264 265 265 265 266 266 266 267 267 268 269 270 270 270 270 269 269 268 268 267 267 267
276 276 275 275 275 275 274 274 274 274 274 275 275 275 276 276 275 275 275 275 275 274 274 275 275 274 274 274 274 273 273 273 273 272 272 272 271 271 271 271 270 270 270 270 270 270 270 270 270 269 269 269 268 268 268 268 267 267 265 263 263 263 263 264 264 264 265 265 266 266 267 267 267 268 269 270 270 270 269 269 268 268 267 267 267
275 274 274 274 274 273 273 273 273 273 273 274 274 274 275 274 274 274 275 275 275 274 274 274 274 273 273 274 273 272 272 273 272 272 272 272 271 271 271 271 270 269 269 269 269 270 270 270 270 269 269 268 268 268 268 267 267 266 265 263 263 263 263 263 264 264 264 265 265 266 267 268 267 268 269 269 269 269 269 269 268 268 267 267 267
273 273 273 273 273 273 273 273 273 272 272 273 273 273 273 273 274 275 275 274 274 274 274 274 273 273 273 273 272 271 271 272 272 272 271 271 271 271 270 270 269 269 268 268 268 269 269 269 269 269 268 268 268 267 267 267 266 266 265 263 262 263 263 263 263 263 264 265 266 267 267 268 268 267 268 269 269 269 269 269 268 268 267 267 267
272 272 272 272 272 272 272 272 272 272 272 272 272 272 272 273 273 274 274 274 274 274 274 274 274 273 273 271 270 270 271 271 271 271 270 270 270 269 269 269 269 268 268 267 267 267 268 268 268 268 268 268 267 267 267 267 267 266 265 263 262 262 262 262 263 263 264 265 266 267 268 268 268 268 268 268 269 269 269 268 268 268 267 267 267
272 272 271 271 271 271 271 271 271 271 271 271 271 271 272 272 272 273 273 273 273 274 274 274 273 273 272 271 270 269 270 270 270 270 269 269 269 268 268 268 267 267 267 267 267 266 266 266 267 267 268 268 267 267 267 267 267 267 266 264 263 262 262 263 263 264 265 265 266 267 268 268 268 268 268 268 268 268 268 268 268 267 267 267 267
271 271 271 271 271 270 270 270 270 270 270 270 270 271 271 271 271 272 272 272 273 273 274 273 272 271 271 270 270 269 269 269 269 269 268 268 268 268 268 267 267 267 267 267 266 266 266 265 265 266 266 267 267 266 267 267 267 267 267 266 264 264 263 263 263 264 265 266 266 267 268 268 268 268 268 268 268 268 268 268 268 268 267 267 267
271 270 270 270 270 270 270 270 270 270 270 270 270 270 270 270 270 271 271 272 272 273 273 273 271 271 271 270 269 269 268 268 268 268 268 268 268 268 268 267 267 267 267 267 266 266 266 265 265 265 265 265 265 266 266 266 266 267 267 266 266 265 263 263 263 264 265 266 266 267 267 268 268 268 268 268 268 268 268 268 268 267 267 267 267
270 269 269 269 269 269 270 269 269 269 269 269 269 269 270 270 270 270 271 271 272 272 273 272 271 271 270 269 269 268 268 268 268 268 268 268 268 268 267 267 267 267 267 267 267 266 266 265 265 265 265 265 265 265 265 265 266 266 266 266 266 265 264 263 263 264 265 266 267 267 267 268 268 268 268 268 268 268 268 268 268 267 267 267 266
269 269 268 269 269 269 269 269 269 269 269 269 269 269 269 269 269 269 270 270 271 271 272 272 271 271 270 269 268 268 268 268 268 268 268 268 268 267 267 267 267 267 267 267 267 266 266 266 265 265 265 265 265 265 265 265 265 265 265 265 265 265 265 263 263 263 264 266 267 267 268 268 268 268 268 267 268 268 268 268 268 267 267 267 266
269 268 268 268 268 268 269 269 269 269 269 269 269 269 268 268 268 268 269 269 270 270 270 271 271 270 270 269 268 268 268 268 268 268 268 268 267 267 267 267 267 267 267 267 267 266 266 265 265 265 265 265 265 264 265 265 265 265 264 264 265 265 265 263 262 263 264 265 266 267 267 268 268 269 268 268 267 267 267 268 267 267 267 266 266
268 267 267 267 267 267 268 268 268 268 268 268 268 268 268 268 268 268 268 269 269 270 270 270 270 269 269 268 268 268 268 268 268 268 267 267 267 267 267 267 267 267 267 267 267 266 266 266 266 265 265 265 265 265 265 265 265 264 264 264 264 264 264 263 262 263 264 265 266 266 267 267 268 268 269 269 268 267 267 267 267 267 267 266 266
Wind_Speed
23 25 25 26 26 27 27 27 28 27 26 25 24 23 22 22 22 20 19 17 16 16 18 19 20 21 21 21 20 20 19 18 16 14 13 12 11 10 8 7 6 7 7 8 10 11 12 13 13 14 15 16 17 17 18 18 18 18 17 17 18 15 15 18 15 22 44 48 40 44 45 42 47 46 42 46 48 47 47 45 44 45 45 44 46
24 25 25 26 27 27 28 28 27 26 25 24 23 23 23 23 21 20 19 18 19 21 23 23 23 23 22 22 21 19 18 17 15 12 11 10 9 8 7 6 6 7 8 10 11 12 13 13 13 14 15 16 17 17 18 18 18 19 19 18 20 20 16 19 22 20 33 48 47 45 44 40 40 43 41 42 46 49 50 48 44 44 45 45 45
24 24 25 26 27 27 27 27 26 25 24 23 23 24 24 23 21 20 22 23 24 25 26 25 24 23 23 22 20 19 17 15 13 11 9 8 7 6 6 6 7 9 10 11 12 12 13 13 14 15 16 16 16 17 17 18 18 18 20 19 20 22 20 19 23 24 28 42 49 46 44 42 41 41 41 42 42 43 46 49 47 46 47 46 45
23 24 25 25 25 26 26 25 25 24 24 24 25 26 25 23 23 24 27 29 29 28 26 25 24 23 22 21 19 17 15 13 12 9 8 6 6 6 6 7 8 10 10 11 11 12 13 13 15 16 17 17 17 17 17 18 19 19 20 22 21 22 24 22 23 27 28 36 46 47 44 43 44 43 41 43 43 41 43 47 48 47 47 48 48
24 24 25 25 24 25 25 25 25 25 26 27 27 26 25 26 28 30 31 31 30 29 27 25 24 22 21 19 17 16 14 12 10 8 7 6 6 6 6 7 8 9 9 10 10 11 12 14 15 16 17 18 18 18 19 18 20 21 21 23 23 23 24 24 25 27 29 32 40 46 46 43 43 43 39 38 42 44 44 47 48 46 47 50 49
24 25 25 26 25 25 25 26 27 27 28 28 27 28 29 30 32 33 33 32 30 28 27 25 23 21 20 18 16 14 12 10 9 7 6 6 6 6 6 7 7 8 9 10 10 11 13 13 15 15 15 17 18 18 19 19 20 22 23 23 24 25 25 26 26 26 29 31 34 39 43 42 42 43 40 37 39 42 43 47 50 49 48 49 47
24 25 26 26 26 26 27 28 28 28 28 28 29 31 32 33 34 33 32 31 30 28 27 25 22 20 19 16 14 12 11 9 8 7 6 5 5 4 5 6 7 8 9 10 11 12 13 13 14 15 15 15 17 17 18 19 20 21 22 23 24 25 26 26 26 26 27 30 30 32 37 40 40 41 43 42 40 39 38 38 43 49 49 48 51
25 25 25 26 27 28 28 28 28 28 29 31 33 34 35 35 34 33 31 30 29 27 26 24 22 19 17 15 13 11 9 8 7 6 5 4 4 4 5 6 7 8 9 10 11 12 12 13 13 14 14 14 14 15 16 18 20 21 21 22 24 25 26 25 25 25 26 27 28 30 33 37 37 38 42 41 36 36 38 36 37 43 46 48 53
26 27 27 28 29 29 29 28 29 31 33 35 36 36 36 35 33 32 31 29 28 26 24 22 20 18 16 14 12 11 9 7 6 4 3 3 3 4 6 7 8 9 10 11 12 12 12 13 13 14 14 14 14 15 16 16 18 20 21 22 23 24 25 25 24 24 26 27 27 28 29 30 32 34 36 36 34 37 42 41 38 41 45 46 51
28 28 28 29 29 29 30 30 32 34 36 37 37 36 35 34 33 32 30 29 27 25 23 20 18 16 15 13 12 10 8 6 5 3 2 3 4 5 7 8 9 10 11 12 12 13 13 13 15 15 15 16 17 17 17 17 16 17 18 19 21 23 25 26 26 25 25 26 28 28 25 27 31 33 34 36 39 40 40 39 38 42 43 38 42
28 28 29 29 30 31 32 34 35 37 37 37 37 36 35 34 33 32 30 28 26 24 21 19 17 15 14 13 11 9 8 6 4 3 2 3 4 6 7 8 9 10 11 13 13 14 15 15 16 17 17 18 20 20 19 18 17 17 17 17 18 20 23 27 29 28 27 27 29 28 25 27 35 37 36 38 40 39 39 40 39 38 35 25 24
29 29 30 31 32 34 36 37 38 38 38 37 37 36 35 34 33 31 29 27 25 23 20 18 17 15 14 12 10 9 7 5 4 3 2 4 5 6 7 8 9 10 11 12 13 14 16 17 17 17 19 20 21 21 21 20 19 18 18 18 19 19 20 24 27 29 31 31 32 32 29 29 34 37 37 37 39 42 42 42 40 35 33 27 22
31 31 32 33 35 36 38 39 39 38 38 37 37 36 35 33 32 30 29 27 24 22 20 18 16 15 13 11 10 8 7 5 3 2 3 4 5 6 8 8 9 10 12 12 13 15 16 18 19 19 20 20 21 22 22 23 23 22 21 22 23 22 21 22 24 26 29 31 33 35 35 34 35 38 40 39 40 42 39 39 40 36 34 34 34
32 32 33 34 36 37 38 39 39 38 38 37 36 36 35 33 31 30 28 26 24 22 20 18 16 14 12 10 9 8 6 5 3 2 3 4 6 6 7 9 10 11 12 13 13 15 16 17 19 20 21 22 22 22 22 25 26 27 27 27 27 26 24 24 25 24 26 28 31 35 37 37 38 41 43 41 41 40 38 39 41 38 39 43 45
32 32 34 35 36 38 38 38 39 38 38 37 36 35 34 33 31 29 27 25 23 21 20 18 16 14 12 10 8 7 6 4 3 2 3 4 6 7 8 9 11 12 13 13 14 15 16 16 17 19 21 22 21 20 22 26 28 29 31 31 30 29 26 25 25 24 26 27 29 34 37 38 39 41 42 42 41 40 40 42 43 42 43 44 43
31 33 35 37 38 39 39 39 39 39 38 37 36 35 33 32 31 29 27 24 22 21 19 17 15 13 11 9 7 7 5 3 2 2 3 4 6 7 9 10 12 13 14 14 15 16 16 16 17 18 20 21 20 19 22 25 28 31 33 34 33 32 29 26 24 24 26 28 30 34 37 37 38 38 39 39 39 40 41 41 42 41 37 32 31
32 35 37 39 40 41 41 41 41 40 39 38 36 35 33 32 30 28 26 25 22 21 19 17 15 12 10 9 6 6 5 3 2 2 3 5 6 8 10 11 13 14 15 16 17 17 16 16 17 18 19 19 19 21 23 25 28 30 32 35 37 36 35 34 31 29 28 29 31 33 34 34 34 34 36 36 35 36 37 36 37 37 30 20 18
35 37 39 40 41 42 42 43 43 41 40 38 37 35 33 31 29 27 26 24 23 21 19 17 15 12 10 8 6 5 4 3 2 2 3 5 8 9 10 12 13 15 16 17 17 18 17 17 17 16 17 17 18 21 23 24 26 28 30 33 36 38 39 40 40 39 37 37 36 34 32 31 32 33 35 34 32 32 33 33 34 34 28 19 17
39 40 41 41 41 42 42 42 43 42 41 38 37 35 33 31 29 26 25 24 22 20 18 16 15 12 10 8 6 5 3 2 2 2 4 5 8 9 10 12 14 15 17 18 18 19 18 18 18 16 15 16 19 21 21 22 23 25 27 29 32 35 38 40 41 42 43 43 42 40 38 37 37 37 37 36 34 33 33 33 35 34 29 26 25
40 40 40 40 41 41 42 42 42 42 41 39 36 35 33 31 29 27 25 23 22 20 17 15 14 12 10 8 6 4 3 2 1 2 3 5 7 9 10 12 13 14 15 17 18 20 19 19 20 17 15 18 20 20 20 20 21 22 23 24 27 32 36 39 39 39 40 41 41 41 42 43 43 42 40 40 39 38 38 38 37 37 34 33 32
38 39 40 41 42 42 42 42 42 41 40 38 36 34 32 30 29 27 26 23 22 20 17 15 14 12 10 8 6 4 3 1 0 2 3 4 6 8 10 12 11 12 14 15 17 18 19 20 20 18 17 20 21 20 19 18 18 19 20 21 24 28 32 34 36 36 36 38 39 41 42 43 44 44 44 43 42 41 42 42 41 41 40 38 37
38 39 40 41 41 41 41 41 40 40 39 37 36 33 31 30 28 27 26 24 22 20 18 16 14 12 10 8 5 4 3 2 1 2 3 4 6 7 9 9 9 10 13 15 16 17 17 18 19 19 19 21 20 19 19 18 17 17 18 19 22 25 26 28 30 32 34 36 38 39 39 39 41 44 45 45 45 46 46 46 44 42 41 41 41
37 37 38 39 39 40 39 39 39 39 38 36 35 34 31 30 28 27 25 24 22 20 19 16 14 13 10 8 5 4 3 3 2 2 3 4 5 6 6 7 7 9 12 14 15 15 16 17 18 19 19 19 18 18 18 18 17 17 18 19 21 22 23 25 28 30 32 33 33 34 35 36 39 40 42 45 47 49 48 46 44 42 41 42 41
36 37 37 38 38 38 38 38 38 37 37 36 35 34 32 30 29 27 25 24 23 21 19 17 15 13 10 8 7 6 5 4 3 2 2 3 3 4 5 6 7 8 10 12 13 14 15 17 17 18 17 17 17 18 18 17 16 18 20 21 23 24 25 26 28 29 30 31 31 31 34 36 37 38 41 44 46 47 47 45 43 42 41 40 37
36 37 36 37 37 37 37 37 37 37 37 36 35 35 33 32 30 28 25 24 23 21 20 18 15 13 11 10 9 7 6 5 4 3 2 2 3 4 5 6 7 8 9 11 12 12 14 15 15 15 16 17 18 18 18 18 19 22 24 25 25 26 26 27 28 29 29 30 31 31 33 35 37 38 40 41 42 43 45 45 44 42 40 37 35
36 36 36 37 37 38 37 37 37 36 36 35 34 34 34 32 31 29 27 25 23 21 20 18 16 14 13 12 10 9 7 6 4 2 2 2 3 4 5 6 7 7 9 10 11 12 13 14 14 15 17 18 18 18 19 22 25 27 27 27 26 26 26 26 27 27 28 30 31 32 33 35 38 39 38 39 40 41 42 44 43 41 39 36 33
36 36 37 37 37 38 39 38 37 36 35 34 33 32 32 32 30 29 28 27 25 22 20 19 18 17 16 14 12 10 8 7 5 3 1 2 3 4 5 6 7 8 9 10 12 13 13 14 15 17 18 19 19 20 22 25 28 29 30 29 27 26 26 24 23 24 26 28 30 32 34 34 35 37 39 39 40 40 41 41 39 37 37 35 29
37 37 37 38 38 38 38 38 38 37 35 34 33 33 32 31 29 28 28 26 25 23 22 21 20 20 19 17 14 12 10 7 5 3 2 2 3 4 5 6 7 9 9 10 12 12 13 14 16 18 20 22 24 24 25 27 27 28 30 30 28 27 26 24 23 24 25 26 27 29 31 32 33 37 39 39 38 39 40 39 36 34 35 31 24
36 37 38 38 38 37 36 37 37 37 36 34 32 31 31 30 29 27 26 24 22 21 22 22 22 20 19 17 15 13 11 8 5 3 2 1 2 3 4 5 7 8 8 9 11 11 12 15 17 20 22 24 26 27 28 29 28 27 28 29 29 28 27 26 26 27 27 27 27 27 28 31 35 37 39 38 37 37 39 38 35 33 32 27 21
34 35 36 36 37 37 36 36 36 36 36 35 33 30 28 27 26 25 24 22 21 19 18 19 20 19 17 16 14 12 10 8 6 4 4 3 3 2 3 3 5 6 7 8 9 11 12 15 17 20 22 23 25 27 28 29 30 30 30 29 28 28 27 26 26 28 28 27 26 26 27 31 34 36 38 38 37 37 37 37 35 32 28 23 20
34 34 35 35 36 37 37 36 36 36 36 36 34 31 27 23 21 21 21 20 19 18 18 17 17 17 16 15 13 12 10 8 6 6 5 5 3 2 2 2 3 5 7 7 8 9 12 14 16 17 19 20 22 24 26 27 28 30 31 30 29 28 29 29 29 29 28 28 27 27 28 30 32 35 36 36 34 35 37 36 34 31 27 22 19
36 36 37 37 37 38 38 38 38 38 37 36 34 32 30 26 21 18 18 17 16 17 17 17 16 15 14 13 12 11 10 8 6 6 6 5 3 1 1 2 3 5 6 6 7 8 11 12 14 15 17 19 20 22 23 24 25 26 27 29 30 30 30 31 31 30 28 28 29 29 30 30 31 34 34 33 33 34 34 32 31 29 26 22 19
38 38 38 38 38 38 38 38 39 40 40 38 35 32 31 31 28 24 19 16 14 14 15 16 16 15 14 13 12 11 10 8 7 7 7 5 3 2 2 2 3 4 4 5 6 8 9 10 12 14 15 17 18 20 21 21 22 23 24 25 28 29 30 30 30 29 29 28 29 29 30 31 32 34 34 33 32 32 31 30 29 27 24 22 19
38 37 38 39 39 39 40 40 41 42 41 40 37 35 33 33 32 31 28 23 19 17 16 16 17 16 15 15 14 13 11 10 9 9 8 6 4 3 3 2 3 3 4 4 5 7 8 9 11 12 14 15 16 18 19 20 21 22 23 24 25 27 29 29 29 29 30 30 30 30 30 31 33 35 35 34 32 31 29 29 28 25 23 21 19
36 35 35 36 38 39 40 41 42 42 42 41 39 37 35 33 32 33 33 32 29 25 22 21 20 19 18 17 16 15 13 11 11 11 9 6 5 4 3 3 3 3 3 3 4 5 7 8 10 11 12 13 15 16 18 20 21 22 23 25 26 27 28 29 28 29 30 30 30 30 30 31 33 34 33 32 31 29 28 27 26 23 21 19 18
34 33 33 35 36 37 38 39 40 42 43 41 38 36 34 32 31 31 31 30 30 28 27 25 23 20 19 19 18 16 14 13 13 11 9 7 6 5 4 5 5 4 3 2 2 3 5 7 9 10 11 12 13 15 17 18 20 21 22 23 25 26 28 28 28 29 30 30 30 30 30 31 32 32 31 30 29 28 26 25 23 21 19 18 16
36 35 35 36 37 36 36 37 38 40 40 38 35 33 31 31 30 30 29 28 28 28 28 27 26 24 22 21 20 18 16 14 14 12 10 8 7 5 5 6 5 4 3 3 2 3 4 6 8 9 10 11 13 14 16 18 19 20 21 22 23 25 26 26 27 28 29 30 30 31 30 30 30 30 29 28 28 27 25 24 22 20 19 16 13
37 37 36 36 36 36 35 35 36 37 36 35 34 32 31 31 30 29 29 29 28 28 29 29 29 28 26 23 22 20 18 17 15 13 11 9 7 7 6 5 4 4 3 3 3 3 4 5 7 8 9 11 12 13 15 17 18 19 20 21 22 23 24 25 26 26 28 30 31 31 30 29 29 28 27 26 26 25 24 23 21 19 17 14 12
37 36 35 35 35 35 34 34 34 35 35 34 33 32 31 31 30 30 30 29 29 30 30 31 31 30 28 25 23 22 20 19 17 14 12 10 9 9 8 6 5 4 4 4 4 3 4 5 6 7 8 10 11 12 14 15 16 18 19 20 21 23 24 24 25 26 27 29 31 31 30 29 28 27 26 24 24 24 23 21 18 16 13 11 10
37 36 35 34 33 34 34 33 33 34 35 36 35 34 33 33 33 33 33 32 31 31 31 31 31 30 27 25 24 23 22 20 18 16 14 13 11 10 9 7 7 7 6 6 5 4 4 5 6 7 8 9 10 11 12 13 14 16 17 18 20 22 23 23 24 25 26 28 30 30 30 29 27 26 25 24 23 23 22 19 16 13 10 7 6
36 35 34 33 33 32 32 32 34 35 36 36 36 36 35 35 34 33 33 32 31 31 31 31 30 28 26 24 23 22 21 20 18 17 15 14 12 11 10 9 9 8 8 7 6 5 5 6 7 8 8 9 10 11 12 12 13 14 15 17 18 20 22 22 23 24 26 27 28 29 29 29 27 24 23 23 24 22 20 17 14 10 7 5 4
35 34 34 33 32 32 32 34 34 34 34 34 35 36 36 34 33 32 32 33 32 31 31 30 28 26 25 23 22 21 20 19 18 17 15 14 14 13 12 11 10 9 9 8 7 6 6 7 8 9 9 9 10 11 12 12 12 12 13 15 17 19 21 22 23 24 26 27 28 28 28 28 26 23 22 23 23 22 19 16 12 8 5 3 3
34 33 32 32 32 33 34 34 32 33 34 35 35 35 35 33 33 33 33 33 32 31 31 30 28 27 25 23 22 21 21 20 18 17 15 15 14 14 13 12 11 11 10 9 8 8 8 9 9 10 10 10 10 11 11 12 12 12 12 13 15 17 19 21 22 24 26 27 28 28 27 27 25 23 22 23 22 20 18 15 11 8 5 2 1
32 31 31 31 31 31 33 33 32 34 35 34 33 33 33 33 33 34 34 33 33 32 31 31 29 28 26 24 23 23 22 20 19 17 16 16 15 14 14 13 13 12 11 10 10 10 11 11 11 11 11 10 10 11 11 11 12 12 11 11 13 15 17 20 22 24 25 26 28 28 27 26 24 22 22 23 22 19 17 14 11 8 4 2 0
32 31 31 30 30 30 31 31 32 32 32 32 32 33 34 34 34 34 34 34 33 32 32 31 29 28 26 25 25 24 23 21 19 17 17 16 16 15 14 14 14 14 12 11 11 12 13 13 14 13 12 12 12 12 12 11 11 12 11 11 12 13 15 18 21 23 23 24 26 26 25 24 23 22 21 22 20 18 15 13 10 7 5 3 2
31 31 31 30 30 31 31 31 31 31 31 32 34 35 35 35 35 35 34 34 34 34 33 31 29 28 27 26 25 25 23 21 19 18 17 17 16 15 14 15 15 14 13 12 12 13 14 14 15 15 14 14 13 13 13 13 12 12 12 12 12 12 13 16 19 21 21 22 23 24 24 23 21 20 20 19 19 17 15 13 11 9 7 5 4
30 30 31 30 31 31 31 31 32 32 32 32 33 34 35 36 35 35 35 35 35 34 33 32 31 29 28 26 26 25 23 22 20 19 18 17 17 16 15 16 16 16 15 14 14 15 15 15 16 16 15 15 15 15 15 14 14 14 13 13 13 12 12 14 17 19 19 19 20 21 22 21 20 18 18 17 17 16 15 13 12 10 8 7 6
29 30 30 30 30 30 30 31 32 34 34 33 33 34 35 36 36 36 37 36 36 35 34 33 31 29 28 27 27 26 24 22 21 20 19 19 17 16 17 18 18 17 16 16 16 16 16 17 17 17 17 17 17 17 16 16 15 15 15 14 14 13 12 13 16 17 17 17 18 18 19 20 18 17 16 16 15 15 14 13 12 10 9 8 7
30 31 31 31 31 32 31 31 32 34 34 33 32 33 33 34 35 36 36 36 35 35 33 32 31 29 28 27 27 25 24 23 22 21 20 19 18 18 18 18 18 18 18 17 17 17 17 17 17 17 17 18 18 18 18 17 17 17 16 16 16 14 12 13 15 16 16 16 16 16 17 18 17 16 15 14 14 13 13 12 11 10 9 9 9
30 31 31 31 32 32 31 31 32 33 33 32 32 32 32 32 34 34 34 33 32 32 31 31 30 29 28 27 27 26 24 23 22 21 20 19 18 18 19 19 19 19 18 18 18 18 18 18 18 17 18 18 19 19 19 18 18 18 17 17 17 16 14 13 15 16 15 14 14 14 15 16 16 15 14 13 13 12 11 11 10 9 9 9 10
29 30 31 31 31 30 30 31 31 31 31 32 32 32 31 32 32 33 33 33 32 32 31 30 29 28 27 27 26 25 24 22 21 21 20 20 19 19 19 20 20 19 18 19 19 19 19 19 18 18 19 19 19 20 20 19 19 19 18 18 18 17 14 13 16 16 14 13 13 13 13 14 14 14 13 12 12 12 11 10 10 10 9 10 10
Wind_Direction
191 190 189 188 188 185 184 184 183 184 185 187 191 192 195 195 192 191 191 190 187 178 167 158 152 147 143 140 137 135 134 132 131 130 129 124 119 115 108 101 85 67 52 35 25 17 14 15 11 5 2 3 3 2 359 357 354 349 349 344 333 332 320 300 284 289 300 304 305 306 311 314 314 317 320 320 320 320 319 318 318 317 315 314 313
184 185 182 181 183 181 180 180 180 182 184 187 192 192 192 191 190 190 186 178 171 163 156 151 148 145 142 140 139 138 137 136 134 133 131 124 117 110 96 79 59 44 34 25 20 17 13 11 8 1 359 359 358 358 353 349 349 344 342 344 334 331 330 309 296 290 297 304 306 307 311 314 313 315 320 320 319 321 320 319 320 318 316 315 314
181 180 178 177 178 177 177 179 181 186 189 192 191 189 188 188 187 184 174 164 159 156 152 148 147 146 144 143 142 143 142 139 138 137 131 120 106 92 70 50 39 29 24 20 16 12 10 7 3 357 353 353 351 350 348 344 343 342 338 338 335 329 330 319 303 295 295 300 304 307 311 314 313 315 319 319 318 320 319 318 319 319 317 317 315
179 178 177 177 177 179 181 183 187 191 192 190 186 185 185 183 178 172 164 158 155 153 151 149 149 149 148 147 147 147 145 143 141 137 127 112 92 73 52 37 31 24 18 16 11 7 4 1 357 354 348 345 345 344 345 344 340 340 336 334 333 328 325 321 309 300 295 297 301 304 309 312 312 314 319 320 319 320 318 316 317 318 318 317 316
184 183 182 182 182 184 187 189 190 190 187 185 183 182 180 174 168 164 159 156 154 152 151 151 152 152 151 150 150 149 147 144 140 132 118 101 80 60 46 36 27 22 16 11 8 3 2 359 354 351 345 341 344 344 343 343 340 336 335 331 330 326 322 318 312 303 295 291 296 302 307 309 310 313 317 320 319 319 319 317 317 317 318 317 316
189 188 189 189 189 189 189 189 187 186 183 182 179 176 171 166 163 161 158 156 154 153 152 153 154 154 153 153 153 151 146 141 135 123 107 89 73 54 42 33 23 20 15 9 9 3 0 0 352 346 345 342 343 345 342 341 339 334 331 330 327 325 320 315 311 305 297 292 293 299 304 308 310 312 315 319 319 317 318 318 318 319 320 319 316
188 188 189 190 190 188 187 185 184 182 180 177 173 169 166 164 161 159 158 157 155 155 154 154 156 156 155 154 152 148 144 138 129 115 101 82 65 45 32 29 21 17 12 6 7 5 359 357 350 345 347 345 344 345 342 338 334 330 328 327 326 322 318 314 311 307 300 296 296 298 302 306 308 309 313 317 317 315 317 317 316 319 321 319 315
191 191 191 190 188 185 184 183 182 180 176 172 168 166 164 163 161 159 159 158 157 157 157 157 158 157 155 154 150 146 141 133 122 110 98 72 50 32 19 20 15 11 11 6 3 3 357 352 350 347 346 348 347 343 340 335 329 327 326 325 324 321 317 314 312 309 304 300 298 300 303 305 306 309 312 317 318 316 318 317 312 313 316 315 313
193 192 190 188 185 183 183 182 179 176 172 168 166 164 163 162 160 159 159 159 158 158 159 160 159 157 154 152 147 143 139 129 118 105 88 55 33 27 19 15 12 6 4 4 359 356 355 350 350 350 349 349 349 342 337 334 328 325 325 325 324 321 318 315 313 311 308 304 301 303 305 302 304 309 312 315 315 314 316 315 310 310 312 311 310
191 188 187 185 185 183 181 178 175 172 169 167 165 164 163 162 161 161 160 160 160 160 160 159 158 157 155 150 146 141 135 126 114 98 70 45 29 27 21 11 9 4 358 358 355 351 352 352 350 351 351 349 346 342 338 335 331 325 322 323 322 320 318 314 311 309 306 302 300 303 305 302 303 307 308 309 311 311 312 312 309 310 312 310 310
191 189 187 186 184 182 178 175 172 170 168 166 165 164 164 163 162 162 161 161 161 160 160 159 156 157 155 150 147 141 132 123 111 91 54 43 27 20 19 11 5 2 356 354 353 351 351 353 352 351 350 348 344 342 341 339 336 326 319 319 317 314 314 310 308 308 304 300 298 299 299 298 301 305 306 308 310 309 309 308 307 308 309 308 308
191 190 188 186 183 179 177 173 171 169 168 167 166 165 165 164 163 163 163 162 162 160 160 159 156 156 156 153 149 140 131 124 112 92 46 33 26 15 12 8 0 357 356 354 353 353 352 351 352 351 349 347 344 344 344 342 336 326 317 316 313 309 308 305 303 304 303 301 299 298 296 297 300 303 305 307 307 307 307 306 306 306 305 304 302
191 190 187 185 181 177 175 172 170 169 168 168 168 167 167 166 165 165 164 163 163 161 160 161 158 158 160 157 150 141 133 126 113 88 42 23 21 15 7 3 1 357 356 357 355 355 354 351 350 351 349 348 346 346 346 341 335 327 319 318 315 312 309 303 299 299 298 297 296 295 298 300 300 301 304 306 306 306 306 305 305 306 305 303 301
189 188 184 182 179 176 174 172 171 170 169 169 169 168 168 168 166 167 167 165 164 163 162 163 162 162 164 160 151 142 135 126 109 73 42 22 10 10 5 359 360 357 355 357 358 358 358 353 350 350 349 349 349 349 344 338 332 326 322 321 319 317 314 310 307 304 300 297 294 295 299 301 300 301 304 307 307 305 304 303 304 305 303 301 301
187 186 182 180 179 177 175 174 172 171 170 171 170 170 170 169 168 168 168 166 166 165 165 165 165 165 164 162 155 144 135 125 105 54 23 16 4 1 360 355 355 354 353 355 358 1 360 354 352 350 347 349 352 348 339 333 328 324 323 322 321 320 318 315 314 311 307 304 299 298 300 301 302 303 304 307 307 305 305 303 303 303 301 299 300
186 185 182 181 180 178 177 175 174 172 172 171 171 171 171 170 170 169 167 166 166 166 166 166 167 167 163 163 160 146 136 129 108 49 8 6 359 353 353 352 350 349 351 355 359 2 360 355 355 350 346 350 353 343 333 330 327 325 325 324 323 322 319 318 317 313 310 307 304 303 302 302 303 303 304 307 307 307 307 305 304 305 302 297 299
187 186 184 183 182 180 179 177 175 174 173 173 172 172 172 171 171 170 168 167 167 167 168 166 166 169 167 163 162 150 140 128 97 42 5 355 352 350 349 349 349 348 351 356 358 359 360 359 356 350 346 351 349 337 332 330 328 328 327 325 325 323 323 327 326 321 315 310 306 305 304 304 305 305 307 309 309 309 309 306 306 307 303 298 299
190 189 187 186 183 182 181 179 177 175 175 175 174 173 173 172 171 171 171 171 170 169 169 167 165 168 169 165 162 157 145 126 98 40 8 351 347 350 349 347 349 351 353 356 355 356 358 358 356 352 346 345 340 333 333 332 329 329 328 326 325 324 327 331 329 325 322 319 316 313 310 309 310 311 313 313 312 314 311 306 306 306 302 298 299
193 191 189 187 185 183 182 181 179 177 176 176 176 174 174 172 171 171 172 172 171 169 169 169 166 165 168 168 163 160 151 124 101 32 10 353 346 348 348 350 354 355 353 352 352 354 355 354 355 352 340 336 335 333 333 334 331 330 328 327 324 323 326 327 325 323 323 322 321 320 319 319 321 322 323 322 321 321 317 312 310 307 302 299 299
193 191 189 187 185 184 183 182 181 180 178 177 176 175 174 173 171 171 171 172 171 169 168 168 166 162 163 166 163 162 159 137 101 24 5 354 347 346 348 355 360 356 351 348 348 351 351 351 353 348 334 332 334 333 335 336 333 330 330 329 323 321 323 323 321 321 320 318 319 321 322 325 328 328 329 327 326 326 324 320 317 311 306 301 298
192 191 190 188 186 185 184 184 182 181 180 178 176 175 174 174 173 172 172 171 170 167 166 166 166 163 163 167 168 165 163 164 119 360 354 349 347 345 350 360 1 349 345 347 346 347 346 345 346 343 333 331 332 333 336 337 335 334 334 330 323 322 323 322 319 320 320 319 321 324 326 329 330 330 329 328 327 327 325 323 320 315 310 305 300
192 191 189 188 187 185 184 183 182 181 180 178 176 174 173 174 174 173 173 171 169 167 166 166 168 166 165 169 174 177 182 199 250 318 336 340 346 349 352 359 355 344 344 346 343 340 339 338 338 336 331 330 333 336 339 340 341 341 337 330 327 327 326 322 320 321 323 324 326 327 327 328 328 327 328 327 326 327 325 323 321 318 314 310 305
191 189 188 187 186 185 184 183 182 181 179 178 177 175 173 173 173 174 173 171 168 166 165 167 170 169 168 171 178 194 212 221 236 280 317 330 343 353 355 356 352 346 343 340 335 333 334 334 333 329 327 332 338 343 347 350 349 345 340 336 335 334 331 328 326 326 325 326 326 324 323 325 325 325 325 324 324 325 324 323 322 319 317 315 313
190 188 188 187 185 185 184 182 182 181 179 179 178 175 173 173 172 173 174 172 170 168 167 169 172 173 176 185 192 201 215 224 236 264 298 323 340 355 357 356 356 348 338 334 332 330 329 329 326 324 330 342 351 354 357 356 350 346 345 343 343 342 340 335 333 331 329 327 325 321 320 322 322 321 321 322 322 323 324 323 323 322 320 320 321
188 187 186 186 184 184 183 182 182 182 181 181 180 177 175 174 172 172 173 174 174 171 169 171 177 183 189 195 199 204 212 222 233 252 279 315 345 356 355 357 360 350 336 333 332 328 323 322 323 331 344 356 0 0 359 355 352 352 353 352 350 348 344 339 337 334 329 326 322 319 318 320 320 320 321 322 323 324 325 325 325 326 327 327 327
187 186 186 185 184 183 182 181 182 182 182 182 183 181 179 178 176 174 174 175 175 175 175 176 183 191 196 199 203 206 210 215 221 233 273 316 347 354 354 1 1 346 335 334 333 329 328 331 338 349 358 2 2 0 357 355 358 0 0 357 354 350 346 343 339 333 327 323 321 318 317 319 321 323 324 326 326 326 327 327 326 328 332 333 331
186 186 186 185 184 183 182 182 181 181 181 182 182 183 182 182 180 178 177 177 178 179 181 184 190 195 198 198 199 201 203 207 209 217 261 321 346 351 356 0 352 341 340 341 338 337 338 343 350 356 360 3 4 3 0 1 3 3 1 358 355 352 349 345 338 330 325 322 319 317 318 321 324 326 329 329 328 329 331 331 328 330 334 335 333
188 187 186 185 184 184 184 183 182 181 182 183 184 183 183 183 184 184 184 185 186 188 190 194 198 200 199 195 193 192 194 198 204 217 244 321 339 339 348 350 342 341 345 343 338 340 343 345 350 356 0 3 4 4 4 4 3 1 358 356 354 353 352 347 340 335 332 326 321 319 320 324 327 330 331 331 330 332 335 335 333 334 337 337 336
189 188 187 186 185 185 185 185 184 183 183 184 185 186 186 186 187 189 190 193 199 205 206 203 199 197 195 194 192 192 192 194 199 210 228 259 295 313 331 336 333 337 342 339 336 341 346 349 356 3 5 5 5 4 3 1 359 357 355 355 354 353 352 349 345 341 338 334 330 327 326 327 330 332 333 332 332 334 337 338 338 338 339 339 338
189 188 188 187 186 186 186 185 185 185 185 185 185 185 186 189 191 192 193 195 200 204 204 201 196 191 190 192 193 193 194 193 192 197 210 222 235 266 309 323 321 324 332 337 338 343 353 2 9 11 9 7 5 2 360 358 355 352 352 352 352 351 349 348 346 342 340 338 335 332 330 329 330 333 334 333 332 335 339 340 341 341 342 341 339
189 190 190 190 189 188 187 187 188 188 187 187 185 181 180 183 189 193 194 194 193 191 190 192 192 188 188 191 191 190 190 188 190 199 210 221 232 256 299 314 312 315 324 333 340 352 6 15 17 15 11 9 6 1 358 356 352 349 347 347 348 349 348 347 347 345 343 341 338 335 333 331 332 333 334 332 332 335 338 341 342 343 343 342 341
193 193 193 193 192 191 191 190 190 190 188 187 185 181 176 173 175 184 189 188 188 188 187 187 187 186 188 190 190 189 185 183 191 207 213 219 230 239 271 292 302 312 321 329 345 8 22 23 20 16 11 9 7 2 358 354 349 346 344 342 344 346 347 346 346 346 345 343 340 336 335 334 333 333 333 333 334 335 337 340 342 343 343 343 346
198 197 196 195 194 194 193 192 193 192 190 187 184 183 182 179 177 177 176 175 181 187 184 182 183 184 184 186 187 187 183 181 193 209 213 214 212 190 195 246 281 305 316 326 353 21 30 26 21 18 13 9 6 1 357 352 347 344 342 339 339 342 344 346 347 347 346 344 341 338 337 336 335 334 333 334 336 337 338 340 341 343 344 346 349
203 202 200 198 196 196 196 196 196 195 193 190 189 189 191 190 185 178 171 169 174 181 183 183 183 182 184 188 189 185 181 183 195 207 210 209 197 182 193 227 258 288 310 336 8 25 28 24 21 17 13 9 5 357 352 349 346 344 341 339 338 340 343 346 348 347 346 345 344 342 340 338 338 336 335 335 337 339 340 342 342 344 347 348 351
206 206 205 203 201 200 200 200 199 197 195 194 195 195 195 194 191 186 182 180 179 178 180 182 182 182 188 193 191 186 185 190 200 205 207 206 200 193 199 218 233 252 287 343 16 22 20 18 17 14 10 7 3 356 350 348 347 345 342 340 340 341 344 346 347 347 346 345 345 344 342 341 341 338 335 334 337 340 341 342 343 345 348 351 354
209 210 210 209 207 207 206 204 202 200 198 198 199 200 198 196 195 194 192 190 185 181 181 181 181 183 190 195 192 187 187 195 203 205 204 207 208 204 206 216 225 239 265 305 352 13 16 13 11 11 8 4 1 357 351 347 346 346 345 343 342 342 344 345 346 346 345 344 344 345 344 343 342 340 337 336 337 339 341 343 344 344 347 350 353
212 213 213 213 212 211 210 207 205 203 202 201 202 201 200 199 198 197 196 193 189 184 181 181 182 185 191 194 192 187 187 194 201 203 206 213 216 214 215 220 225 237 256 273 306 356 11 10 6 5 3 2 0 357 352 348 347 346 346 346 344 343 343 344 345 345 345 344 343 344 344 344 343 340 337 336 337 339 342 344 345 344 345 348 355
215 216 216 216 214 212 210 209 207 204 204 204 204 203 202 201 199 198 198 195 190 186 184 184 188 191 192 191 189 189 191 196 200 203 208 214 219 220 222 221 221 229 244 263 291 330 356 1 359 358 358 358 358 356 352 348 346 345 346 345 343 342 342 343 345 347 347 345 343 343 342 342 342 341 338 336 337 338 340 344 346 347 349 357 11
218 218 218 218 216 213 211 210 208 205 204 205 205 204 202 200 198 198 198 195 191 189 188 189 192 195 193 189 188 190 193 198 201 203 207 210 215 220 222 222 223 230 239 252 273 304 335 344 345 347 350 352 353 353 351 348 346 346 347 343 339 340 341 342 344 347 347 345 343 342 341 341 341 341 339 338 338 339 339 342 348 349 352 5 25
219 219 220 219 217 216 214 212 209 207 205 205 204 202 201 200 201 201 200 196 193 192 192 193 195 197 195 193 192 194 197 200 202 202 204 209 214 218 220 223 228 235 241 247 259 283 311 322 328 334 340 344 346 347 347 346 346 347 347 342 337 337 338 340 341 344 344 344 343 342 342 342 341 341 339 338 338 339 339 340 344 348 352 6 28
220 219 220 219 218 217 215 213 212 210 208 206 204 203 202 203 203 202 200 198 197 196 196 199 200 199 197 197 198 200 203 205 203 202 204 209 215 220 224 228 232 238 244 251 258 273 294 306 314 320 327 334 338 339 342 344 345 346 346 341 336 334 336 339 341 341 342 342 343 343 344 344 342 339 337 336 337 339 340 340 340 345 352 360 16
222 221 220 219 218 216 215 214 214 211 208 206 206 205 204 203 202 201 201 200 200 199 199 200 200 198 197 198 200 204 208 209 206 205 208 212 217 223 227 230 236 241 246 254 264 275 288 296 301 308 316 324 328 330 335 339 340 342 343 338 333 332 335 337 340 341 341 341 342 343 345 346 344 339 335 335 337 339 339 338 338 339 345 354 9
224 222 221 220 218 217 216 215 213 210 208 207 207 206 204 203 203 202 202 202 201 201 201 200 199 199 200 200 202 207 212 212 210 211 212 214 220 225 228 231 238 243 246 255 265 275 283 287 290 297 305 311 316 320 327 332 334 335 336 332 329 329 332 334 338 341 342 342 343 345 346 347 346 341 335 334 337 337 336 335 332 328 329 344 20
225 223 222 222 221 219 218 216 213 212 211 209 208 207 206 205 205 204 203 203 203 202 203 203 201 202 202 202 203 209 214 214 212 213 215 217 222 226 229 233 239 243 246 254 263 270 276 280 283 288 294 300 304 309 315 322 326 326 324 323 323 324 328 333 338 341 341 342 343 345 345 347 346 342 336 334 334 335 334 331 326 320 313 300 316
227 224 223 222 221 221 220 217 215 214 211 209 209 209 207 207 207 206 205 205 204 204 204 204 204 204 205 205 208 213 216 216 216 216 217 220 223 226 229 234 240 243 247 252 259 264 270 274 278 282 287 290 294 298 303 310 315 316 315 314 313 317 325 332 337 340 342 342 343 343 343 344 344 341 338 335 332 330 329 326 320 311 291 268 266
229 226 224 223 222 222 221 219 216 214 212 211 211 209 207 207 208 207 206 206 205 205 205 204 204 206 207 209 213 217 218 218 218 218 219 222 223 225 229 235 240 244 249 252 256 261 266 270 274 278 283 286 287 290 294 299 303 307 310 308 305 310 322 329 333 336 340 341 342 342 341 341 340 339 338 336 331 326 323 320 316 303 280 265 261
232 228 226 226 224 223 222 220 217 215 214 213 212 210 209 208 208 207 208 207 207 207 206 204 205 207 209 211 215 219 219 218 219 219 220 223 224 226 233 238 242 247 251 253 256 260 264 267 271 275 280 283 285 286 289 292 295 298 302 304 303 307 317 322 324 330 336 338 338 339 339 339 339 338 337 336 331 325 318 314 310 300 278 260 252
234 231 229 228 227 226 224 221 218 216 216 215 213 212 210 209 208 208 208 207 207 207 207 206 206 209 211 213 216 218 218 218 219 219 221 225 228 231 237 242 246 250 253 255 258 261 263 265 269 273 277 280 282 283 285 288 289 290 293 297 298 301 307 312 316 323 330 333 333 335 337 336 337 338 336 333 329 324 317 311 306 296 276 258 247
236 233 231 230 229 228 226 223 221 219 218 216 215 214 212 211 211 210 208 207 207 207 208 208 208 210 212 215 217 218 217 217 219 221 225 229 232 236 240 245 249 253 255 258 261 262 264 266 269 272 275 278 280 281 282 284 285 286 287 290 292 294 298 306 311 316 322 326 328 332 334 333 335 337 338 333 328 323 317 311 305 294 276 261 250
240 236 233 232 231 230 229 227 225 224 221 218 217 215 213 213 213 212 209 208 208 209 210 211 212 213 216 217 218 218 218 219 221 226 231 234 237 240 244 248 252 255 259 263 265 265 267 269 270 273 275 277 277 278 280 281 282 283 283 284 286 289 295 302 305 307 313 320 325 328 330 330 330 333 336 335 331 325 317 311 304 292 276 264 256
242 239 236 235 235 233 232 230 228 226 223 220 218 216 214 213 213 212 210 211 212 213 214 215 216 217 219 220 220 220 220 222 226 232 236 238 241 244 248 252 255 258 261 265 267 269 271 272 273 275 276 276 276 277 278 279 280 280 280 280 281 284 289 295 296 297 304 314 319 322 325 326 327 329 333 336 334 328 320 312 303 291 279 270 261